Regional Weather Roundup
Issued by NWS Green Bay, WI

Home | Current Version | Previous Version | Text Only | Print | Product List | Glossary On
Versions: 1 2 3 4 5 6 7 8 9 10 11 12 13 14 15 16 17 18 19 20 21 22 23 24 25 26 27 28 29 30 31 32 33 34 35 36 37 38 39 40 41 42 43 44 45 46 47 48 49 50
000
ASUS43 KGRB 040200
RWRGRB

NORTH-CENTRAL AND NORTHEAST WISCONSIN REGIONAL WEATHER ROUNDUP
NATIONAL WEATHER SERVICE GREEN BAY WI
900 PM CDT FRI JUL 03 2015

WIZ005-009-010>012-018-019-040300-
NORTH CENTRAL WISCONSIN

CITY           SKY/WX    TMP DP  RH WIND       PRES   REMARKS
IRONWOOD       MOCLDY    64  61  88 CALM      29.85R
MANITOWISH WTR NOT AVBL
ARBOR VITAE    NOT AVBL
EAGLE RIVER    NOT AVBL
LAND O LAKES   NOT AVBL
RHINELANDER    PTCLDY    65  59  81 W6        29.92R
PHILLIPS       NOT AVBL
ANTIGO         NOT AVBL
TOMAHAWK       NOT AVBL
MERRILL        NOT AVBL
$$

WIZ013-073-040300-
NORTHEAST WISCONSIN

CITY           SKY/WX    TMP DP  RH WIND       PRES   REMARKS
IRON MOUNTAIN  PTCLDY    68  57  68 CALM      29.85F
MARINETTE      CLEAR     68  54  60 SW6       29.86S
$$

WIZ017-030-035>037-045-040300-
CENTRAL WISCONSIN

CITY           SKY/WX    TMP DP  RH WIND       PRES   REMARKS
MEDFORD        NOT AVBL
WAUSAU         CLEAR     70  56  61 W7        29.89S
MOSINEE        NOT AVBL
MARSHFIELD     CLEAR     67  56  67 W5        29.91F
WISC RAPIDS    CLEAR     67  57  70 W6        29.92S
STEVENS POINT  NOT AVBL
WAUPACA        NOT AVBL
SHAWANO        NOT AVBL
CLINTONVILLE   NOT AVBL
$$

WIZ038-039-048-051-040300-
FOX VALLEY

CITY           SKY/WX    TMP DP  RH WIND       PRES   REMARKS
NWS GREEN BAY  CLOUDY    71  57  61 S5        29.89S
APPLETON       MOCLDY    68  54  60 VRB5      29.91S
OSHKOSH        CLEAR     68  56  65 SW3       29.90S
FOND DU LAC    CLEAR     66  55  67 SW5       29.91S
$$

WIZ022-050-052-040300-
EAST CENTRAL WISCONSIN

CITY           SKY/WX    TMP DP  RH WIND       PRES   REMARKS
STURGEON BAY   PTCLDY    64  52  63 S7        29.91S
MANITOWOC      NOT AVBL
SHEBOYGAN      CLEAR     62  50  64 S5        29.92R
$$

LMZ563-521-522-541>543-040300-
LAKESHORE

STATION/POSITION TIME  TEMP    WIND        PRES    VSBY  WAVE
                       AIR SEA DIR/SP/G                  HT/PER
                 (UTC) (F)     (DEG/KT/KT) (MB)    (MI)  (FT/S)
SHEBOYGAN LKSHOR 0100   65     190/  8/  9 1013.2S
KEWAUNEE LKSHORE 0100   63     180/  9/ 10 1011.9S
NORTHPORT PIER   0100   66     160/  5/  8 1011.5S
N MID LAKE BUOY  0050   51 43  210/ 12/ 14 1011.8F         2/ 4
S GREEN BAY BUOY 0100   71 69  210/  8/ 12 1013.2F
SISTER BAY LKSHO 0114   66     160/  8/  9   N/A
CHAMBERS ISLAND  0100   71     190/  6/ 10 1011.5S
MENOMINEE LKSHOR 0100   71     190/  6/  9 1012.0F
$$


USA.gov is the U.S. government's official web portal to all federal, state and local government web resources and services.